�N����,����,�~����,�C��,���x,�C��,����,���ϕ���,�ő�u�ԕ���,�ő厞����,���˗�,�I�_���x,�n�����x,�ő啗���N��,DTYPE
"22/07/14","00:10",0.0,23.3,88.6,998.6,309.2,1.3,2.8,313.0,0.00,21.4,24.9,"00:07:44",1
"22/07/14","00:20",0.0,23.3,88.6,998.6,320.4,1.5,2.4,340.4,0.00,21.4,25.0,"00:17:44",1
"22/07/14","00:30",0.0,23.4,88.5,998.6,319.6,1.8,3.1,325.5,0.00,21.4,24.8,"00:22:48",1
"22/07/14","00:40",0.0,23.4,88.5,998.6,318.3,2.3,4.2,338.3,0.00,21.4,24.9,"00:34:48",1
"22/07/14","00:50",0.0,23.5,88.5,998.6,324.2,2.0,4.3,343.2,0.00,21.5,24.8,"00:49:04",1
"22/07/14","01:00",0.0,23.6,88.5,998.4,329.7,2.2,3.5,350.1,0.00,21.6,25.0,"00:55:04",1
"22/07/14","01:10",0.0,23.4,88.4,998.6,334.9,1.6,3.1,321.3,0.00,21.4,24.9,"01:01:52",1
"22/07/14","01:20",0.0,23.4,88.6,998.6,333.1,1.5,2.0,345.6,0.00,21.4,24.6,"01:15:12",1
"22/07/14","01:30",0.0,23.4,88.8,998.4,334.1,2.1,3.5,338.6,0.00,21.5,24.9,"01:29:44",1
"22/07/14","01:40",0.0,23.5,88.9,998.6,338.0,2.3,4.3,337.8,0.00,21.6,24.8,"01:33:28",1
"22/07/14","01:50",0.0,23.4,88.9,998.2,337.5,1.6,3.1,341.8,0.00,21.5,24.6,"01:44:40",1
"22/07/14","02:00",0.0,23.2,89.0,998.4,328.3,1.7,2.7,342.9,0.00,21.3,24.6,"01:52:24",1
"22/07/14","02:10",0.0,23.1,89.1,998.6,281.2,1.1,2.0,249.9,0.00,21.2,24.7,"02:06:00",1
"22/07/14","02:20",0.0,23.0,89.2,998.9,300.3,1.5,2.8,326.8,0.00,21.2,24.7,"02:11:52",1
"22/07/14","02:30",0.0,23.0,89.3,998.6,330.9,1.3,2.2,314.5,0.00,21.2,24.7,"02:24:48",1
"22/07/14","02:40",0.0,23.1,89.5,998.4,337.4,1.6,2.4,333.3,0.00,21.3,24.6,"02:31:28",1
"22/07/14","02:50",0.0,23.0,89.5,998.4,334.0,1.5,3.1,298.3,0.00,21.2,24.7,"02:48:00",1
"22/07/14","03:00",0.0,23.0,89.6,998.4,327.2,1.5,2.5,337.6,0.00,21.2,24.7,"02:50:32",1
"22/07/14","03:10",0.0,23.0,89.6,998.4,327.6,1.2,1.7,332.9,0.00,21.2,24.2,"03:01:44",1
"22/07/14","03:20",0.0,23.0,89.7,998.4,332.3,1.2,1.4,322.8,0.00,21.3,24.5,"03:11:44",1
"22/07/14","03:30",0.0,22.9,89.8,998.2,317.0,0.8,1.3,309.2,0.00,21.2,24.5,"03:25:12",1
"22/07/14","03:40",0.0,22.9,89.9,998.6,308.0,0.8,1.6,310.7,0.00,21.2,24.6,"03:35:52",1
"22/07/14","03:50",0.0,22.8,90.0,998.2,317.2,0.8,1.3,305.2,0.00,21.1,24.7,"03:45:20",1
"22/07/14","04:00",0.0,22.8,90.3,998.2,321.2,1.0,1.3,312.5,0.00,21.2,24.5,"03:56:00",1
"22/07/14","04:10",0.0,22.8,90.5,997.9,308.0,1.1,1.4,322.7,0.00,21.2,24.4,"04:00:02",1
"22/07/14","04:20",0.0,22.7,90.7,998.2,285.7,0.7,1.3,313.9,0.00,21.1,24.6,"04:10:16",1
"22/07/14","04:30",0.0,22.7,90.9,998.4,288.1,1.1,1.8,306.9,0.00,21.2,24.6,"04:29:28",1
"22/07/14","04:40",0.0,22.7,91.0,998.4,287.0,1.2,2.0,317.3,0.00,21.2,24.4,"04:30:32",1
"22/07/14","04:50",0.0,22.7,91.1,998.2,273.3,1.0,1.3,257.5,0.00,21.2,24.4,"04:43:44",1
"22/07/14","05:00",0.0,22.7,91.2,997.9,294.9,1.0,1.4,320.7,0.00,21.2,24.6,"04:53:52",1
"22/07/14","05:10",0.0,22.7,91.3,998.2,315.1,1.2,1.8,307.2,0.00,21.2,24.6,"05:09:16",1
"22/07/14","05:20",0.0,22.8,91.3,997.2,317.3,1.1,1.6,334.1,0.00,21.3,24.5,"05:18:40",1
"22/07/14","05:30",0.0,22.9,91.4,997.7,330.4,1.2,1.7,332.2,0.00,21.5,24.2,"05:22:56",1
"22/07/14","05:40",0.0,22.8,91.5,997.7,331.0,1.1,1.9,344.2,0.00,21.4,24.4,"05:33:36",1
"22/07/14","05:50",0.0,22.7,91.7,997.7,322.2,1.0,1.3,339.3,0.00,21.3,24.4,"05:41:44",1
"22/07/14","06:00",0.0,22.6,91.7,997.4,302.2,0.8,1.2,315.5,0.00,21.2,24.4,"05:56:40",1
"22/07/14","06:10",0.0,22.6,91.8,997.4,289.0,0.8,1.1,315.1,0.00,21.2,24.4,"06:09:44",1
"22/07/14","06:20",0.0,22.6,92.0,997.9,310.7,1.1,1.4,316.1,0.00,21.3,24.2,"06:19:20",1
"22/07/14","06:30",0.0,22.8,92.0,997.9,328.8,1.0,1.3,327.8,0.00,21.5,24.3,"06:21:36",1
"22/07/14","06:40",0.2,22.8,92.2,997.9,295.4,0.8,1.2,321.4,0.00,21.5,24.2,"06:36:48",1
"22/07/14","06:50",0.0,22.9,92.3,998.2,310.4,1.0,1.9,321.7,0.01,21.6,24.3,"06:49:20",1
"22/07/14","07:00",0.0,22.9,92.4,997.9,333.0,1.0,1.7,333.9,0.01,21.6,24.2,"06:52:24",1
"22/07/14","07:10",0.0,23.1,92.4,998.4,302.9,0.7,1.1,327.7,0.01,21.8,24.4,"07:07:44",1
"22/07/14","07:20",0.0,23.1,92.6,998.4,298.9,1.1,1.6,317.3,0.02,21.9,24.3,"07:17:04",1
"22/07/14","07:30",0.0,23.1,92.7,998.2,299.2,0.8,1.3,320.2,0.02,21.9,24.2,"07:22:40",1
"22/07/14","07:40",0.0,23.3,92.8,998.4,273.6,0.7,1.0,274.8,0.03,22.1,24.2,"07:32:00",1
"22/07/14","07:50",0.0,23.5,92.8,998.4,316.9,0.7,1.1,326.0,0.04,22.3,24.5,"07:41:52",1
"22/07/14","08:00",0.0,23.6,92.8,998.6,337.6,1.0,1.4,343.4,0.04,22.4,24.3,"07:58:56",1
"22/07/14","08:10",0.0,23.9,92.8,998.4,338.5,0.5,1.1,346.0,0.06,22.7,24.2,"08:07:12",1
"22/07/14","08:20",0.0,24.1,92.8,998.4,315.2,0.5,1.0,327.2,0.06,22.9,24.3,"08:11:20",1
"22/07/14","08:30",0.0,24.2,92.7,998.2,290.4,0.2,1.0,266.2,0.05,23.0,24.4,"08:25:44",1
"22/07/14","08:40",0.0,24.3,92.6,998.2,222.4,0.1,0.5,137.2,0.05,23.1,24.4,"08:37:04",1
"22/07/14","08:50",0.0,24.3,92.6,998.4,206.4,0.2,0.8,124.9,0.04,23.1,24.2,"08:42:16",1
"22/07/14","09:00",0.0,24.3,92.6,998.9,263.3,0.6,1.4,241.4,0.04,23.1,24.4,"08:56:08",1
"22/07/14","09:10",0.0,24.5,92.6,998.6,294.8,0.6,1.2,344.4,0.07,23.3,24.2,"09:05:36",1
"22/07/14","09:20",0.2,24.6,92.4,998.4,307.7,0.7,2.1,345.4,0.09,23.3,24.2,"09:18:00",1
"22/07/14","09:30",0.0,24.7,92.2,998.4,310.5,0.7,1.7,339.5,0.10,23.4,24.3,"09:28:24",1
"22/07/14","09:40",0.0,24.9,92.0,998.4,335.9,0.8,1.6,340.1,0.11,23.5,24.4,"09:32:32",1
"22/07/14","09:50",0.0,25.3,91.7,997.9,270.6,0.3,1.1,249.2,0.13,23.9,24.3,"09:45:04",1
"22/07/14","10:00",0.0,25.4,90.9,998.4,314.8,0.5,1.4,335.2,0.14,23.8,24.4,"09:56:16",1
"22/07/14","10:10",0.0,25.4,90.1,998.6,339.3,0.8,1.9,350.7,0.14,23.7,24.7,"10:02:56",1
"22/07/14","10:20",0.0,25.8,89.1,998.4,334.4,0.8,1.8,333.4,0.12,23.9,24.4,"10:13:28",1
"22/07/14","10:30",0.0,25.9,87.9,998.4,347.1,0.8,1.9,344.9,0.14,23.8,24.4,"10:25:52",1
"22/07/14","10:40",0.0,26.3,86.6,998.2,351.6,0.5,1.4,343.7,0.15,23.9,24.3,"10:36:48",1
"22/07/14","10:50",0.0,26.6,85.0,997.9,318.1,0.7,1.8,348.8,0.17,23.9,24.6,"10:41:28",1
"22/07/14","11:00",0.0,26.8,83.5,997.7,326.6,0.5,1.0,356.1,0.20,23.8,24.4,"10:54:00",1
"22/07/14","11:10",0.0,27.0,81.9,997.4,10.4,0.6,1.4,31.0,0.18,23.7,24.5,"11:08:40",1
"22/07/14","11:20",0.0,27.2,80.9,997.0,25.2,0.7,1.7,4.4,0.17,23.7,24.2,"11:13:28",1
"22/07/14","11:30",0.0,27.2,80.3,997.0,67.7,0.5,1.2,343.0,0.17,23.6,24.4,"11:27:52",1
"22/07/14","11:40",0.0,27.4,80.2,996.7,355.7,0.5,1.2,358.0,0.17,23.7,24.4,"11:30:02",1
"22/07/14","11:50",0.0,27.3,79.9,996.5,317.7,0.7,2.1,342.8,0.14,23.6,24.4,"11:42:08",1
"22/07/14","12:00",0.0,27.3,79.9,996.7,349.0,0.3,0.9,340.2,0.11,23.6,24.5,"11:55:20",1
"22/07/14","12:10",0.0,27.3,80.1,996.5,338.8,1.0,1.8,334.5,0.10,23.6,24.4,"12:07:28",1
"22/07/14","12:20",0.0,27.1,80.7,996.5,336.2,0.8,2.0,348.8,0.12,23.5,24.6,"12:16:40",1
"22/07/14","12:30",0.0,27.2,80.6,996.5,298.0,0.6,1.4,308.8,0.14,23.6,24.7,"12:20:08",1
"22/07/14","12:40",0.0,27.2,80.1,996.5,350.3,0.7,1.9,339.3,0.13,23.5,24.6,"12:31:04",1
"22/07/14","12:50",0.0,27.2,79.9,996.3,353.5,1.1,2.2,348.3,0.08,23.5,24.7,"12:48:00",1
"22/07/14","13:00",0.0,27.0,80.7,996.3,343.6,1.0,2.0,4.6,0.06,23.4,24.7,"12:54:16",1
"22/07/14","13:10",0.0,26.9,81.3,996.5,343.3,0.8,1.6,339.0,0.06,23.5,24.8,"13:02:32",1
"22/07/14","13:20",0.0,27.1,81.6,996.5,330.1,0.8,1.4,348.1,0.07,23.7,24.7,"13:13:12",1
"22/07/14","13:30",0.0,27.0,81.9,996.3,318.7,0.7,1.3,327.6,0.09,23.7,24.7,"13:24:24",1
"22/07/14","13:40",0.0,27.0,81.7,996.5,322.2,0.6,1.2,350.3,0.07,23.6,24.6,"13:38:24",1
"22/07/14","13:50",0.0,27.0,81.6,996.5,279.2,0.6,1.2,248.9,0.07,23.6,24.8,"13:42:00",1
"22/07/14","14:00",0.0,26.9,82.1,996.5,304.3,0.8,1.8,343.5,0.07,23.6,24.8,"13:52:48",1
"22/07/14","14:10",0.0,26.7,82.7,996.3,329.8,1.0,2.0,342.8,0.08,23.6,24.6,"14:04:32",1
"22/07/14","14:20",0.0,26.9,83.1,996.5,278.9,0.5,1.1,344.7,0.09,23.8,24.7,"14:10:16",1
"22/07/14","14:30",0.0,26.8,82.9,996.5,276.3,0.6,1.2,233.5,0.07,23.7,25.0,"14:28:32",1
"22/07/14","14:40",0.0,27.0,83.0,996.5,226.2,0.3,1.0,228.4,0.06,23.9,24.6,"14:38:32",1
"22/07/14","14:50",0.0,27.0,83.4,996.3,236.9,0.6,1.2,165.7,0.06,24.0,24.8,"14:40:32",1
"22/07/14","15:00",0.0,26.5,83.0,996.0,227.4,1.0,2.9,231.4,0.06,23.4,24.7,"14:57:36",1
"22/07/14","15:10",0.2,26.3,82.7,996.3,203.5,0.7,1.9,145.4,0.05,23.2,24.8,"15:00:02",1
"22/07/14","15:20",0.0,26.1,82.8,996.5,277.4,0.7,1.2,247.5,0.06,23.0,25.0,"15:12:48",1
"22/07/14","15:30",0.0,26.6,82.9,996.3,198.0,0.3,1.1,140.8,0.08,23.5,24.7,"15:29:36",1
"22/07/14","15:40",0.0,26.7,83.3,996.3,46.4,0.5,1.1,16.7,0.10,23.7,24.7,"15:39:44",1
"22/07/14","15:50",0.0,26.3,83.6,996.3,16.6,0.7,2.2,334.8,0.03,23.3,24.7,"15:44:08",1
"22/07/14","16:00",0.2,26.3,84.1,996.5,358.0,0.5,1.2,317.5,0.05,23.4,24.8,"15:55:12",1
"22/07/14","16:10",0.0,26.0,84.7,996.0,294.9,0.8,2.2,228.7,0.03,23.3,24.7,"16:04:48",1
"22/07/14","16:20",0.0,25.9,85.8,996.3,289.0,0.7,1.6,325.7,0.04,23.4,24.9,"16:18:24",1
"22/07/14","16:30",0.0,25.9,86.7,996.3,313.7,0.8,1.4,342.5,0.02,23.6,24.8,"16:22:16",1
"22/07/14","16:40",1.0,25.5,87.6,996.0,296.9,1.1,2.0,257.2,0.02,23.3,24.9,"16:31:44",1
"22/07/14","16:50",0.4,25.1,88.5,996.5,332.0,1.1,2.5,348.7,0.03,23.1,24.6,"16:46:48",1
"22/07/14","17:00",0.0,24.9,89.2,996.7,309.5,0.7,1.6,332.3,0.03,23.0,24.7,"16:50:02",1
"22/07/14","17:10",0.0,24.7,89.9,996.5,312.0,0.8,1.8,343.7,0.03,23.0,24.6,"17:00:02",1
"22/07/14","17:20",0.0,24.8,90.3,996.0,319.8,0.6,1.2,342.2,0.03,23.1,24.8,"17:10:32",1
"22/07/14","17:30",0.0,24.8,90.6,996.5,306.7,0.7,1.6,345.2,0.01,23.2,24.8,"17:29:12",1
"22/07/14","17:40",0.0,24.6,91.0,996.3,275.6,0.7,1.8,239.2,0.00,23.1,24.7,"17:34:56",1
"22/07/14","17:50",0.0,24.5,91.3,996.0,294.7,0.7,1.4,329.4,0.00,23.0,24.7,"17:41:04",1
"22/07/14","18:00",0.0,24.4,91.5,996.0,289.3,0.7,1.7,326.5,0.00,23.0,24.8,"17:54:16",1
"22/07/14","18:10",0.0,24.3,91.8,996.3,288.9,0.8,1.2,315.8,0.00,22.9,24.7,"18:05:28",1
"22/07/14","18:20",0.0,24.2,92.0,996.3,277.1,0.8,1.9,327.8,0.00,22.9,24.8,"18:11:04",1
"22/07/14","18:30",0.0,24.1,92.2,996.3,304.9,0.8,1.6,329.0,0.00,22.8,24.9,"18:24:16",1
"22/07/14","18:40",0.0,24.0,92.4,996.7,300.2,1.0,1.8,332.1,0.00,22.7,24.7,"18:38:00",1
"22/07/14","18:50",0.0,24.0,92.6,996.7,293.9,0.8,1.6,306.8,0.00,22.8,24.8,"18:40:32",1
"22/07/14","19:00",0.0,23.9,92.7,996.5,297.2,1.1,1.9,314.9,0.00,22.7,24.8,"18:58:00",1
"22/07/14","19:10",0.0,24.0,92.9,996.3,310.5,1.1,1.8,325.6,0.00,22.8,24.6,"19:02:40",1
"22/07/14","19:20",0.0,24.0,93.0,996.3,301.7,1.0,1.7,315.2,0.00,22.8,24.7,"19:12:08",1
"22/07/14","19:30",0.0,24.0,93.1,996.5,313.7,1.2,1.6,320.9,0.00,22.9,24.8,"19:22:48",1
"22/07/14","19:40",0.0,23.9,93.2,996.3,301.1,1.0,1.6,320.1,0.00,22.8,24.7,"19:33:28",1
"22/07/14","19:50",0.0,23.8,93.4,996.3,295.6,0.8,1.1,290.5,0.00,22.7,25.1,"19:40:24",1
"22/07/14","20:00",0.0,23.9,93.5,996.7,302.0,1.2,1.9,323.1,0.00,22.8,24.9,"19:55:44",1
"22/07/14","20:10",0.0,23.8,93.6,996.5,292.0,1.0,1.7,310.7,0.00,22.7,24.8,"20:00:32",1
"22/07/14","20:20",0.0,23.8,93.7,996.3,297.4,1.1,1.7,316.3,0.00,22.8,24.8,"20:19:04",1
"22/07/14","20:30",0.0,23.7,93.8,996.7,303.5,0.8,1.4,320.3,0.00,22.7,24.7,"20:24:00",1
"22/07/14","20:40",0.2,23.8,93.9,996.5,300.2,1.0,1.7,323.0,0.00,22.8,24.6,"20:35:20",1
"22/07/14","20:50",0.0,23.8,94.0,996.5,303.2,1.1,2.1,337.8,0.00,22.8,24.7,"20:49:20",1
"22/07/14","21:00",0.0,23.9,94.1,996.7,343.5,1.2,2.1,337.9,0.00,22.9,24.6,"20:50:56",1
"22/07/14","21:10",0.0,23.9,94.2,996.7,326.4,1.1,1.4,312.7,0.00,22.9,24.7,"21:01:44",1
"22/07/14","21:20",0.0,23.8,94.3,996.3,287.3,0.7,1.3,315.6,0.00,22.9,24.6,"21:19:52",1
"22/07/14","21:30",0.0,23.8,94.3,996.7,308.3,1.2,1.8,345.4,0.00,22.9,24.7,"21:22:24",1
"22/07/14","21:40",0.0,23.8,94.4,996.7,302.2,1.0,1.8,322.1,0.00,22.9,24.7,"21:32:32",1
"22/07/14","21:50",0.0,23.8,94.5,996.7,308.2,0.8,1.3,327.4,0.00,22.9,24.6,"21:46:40",1
"22/07/14","22:00",0.0,23.8,94.5,996.7,317.9,0.8,1.2,335.2,0.00,22.9,24.7,"21:50:08",1
"22/07/14","22:10",0.0,23.8,94.6,997.0,312.8,0.2,0.9,331.4,0.00,22.9,24.7,"22:09:52",1
"22/07/14","22:20",0.0,23.9,94.6,996.7,330.8,1.0,1.3,317.7,0.00,23.0,24.7,"22:11:36",1
"22/07/14","22:30",0.0,23.9,94.7,996.7,325.5,1.2,1.7,330.0,0.00,23.0,24.6,"22:29:12",1
"22/07/14","22:40",0.0,23.8,94.8,996.7,301.4,0.8,1.4,313.8,0.00,23.0,24.5,"22:32:48",1
"22/07/14","22:50",0.0,23.8,94.8,997.0,281.6,0.8,1.2,253.9,0.00,23.0,24.5,"22:46:00",1
"22/07/14","23:00",0.0,23.8,94.9,996.7,314.5,1.2,1.9,329.8,0.00,23.0,24.6,"22:58:32",1
"22/07/14","23:10",0.0,23.8,94.9,996.5,327.4,0.8,1.3,340.0,0.00,23.0,24.7,"23:00:02",1
"22/07/14","23:20",0.0,23.7,95.0,996.7,321.5,1.1,1.3,333.4,0.00,22.9,24.7,"23:10:08",1
"22/07/14","23:30",0.0,23.7,95.0,996.7,300.8,1.2,1.7,324.8,0.00,22.9,24.6,"23:28:32",1
"22/07/14","23:40",0.0,23.7,95.1,996.7,290.2,1.0,1.7,303.0,0.00,22.9,24.7,"23:30:32",1
"22/07/14","23:50",0.0,23.7,95.2,996.5,306.9,0.8,1.4,319.8,0.00,22.9,24.5,"23:44:16",1
"22/07/14","24:00",0.0,23.7,95.2,996.3,304.6,0.7,1.2,309.7,0.00,22.9,24.7,"23:58:24",1
